Regional Weather Roundup
Issued by NWS

Home | Current Version | Previous Version | Text Only | Print | Product List | Glossary On
Versions: 1 2 3 4 5 6 7 8 9 10 11 12 13 14 15 16 17 18 19 20 21 22 23 24 25 26 27
633
ASUS43 KDMX 220007
RWRIA

WEATHER ROUNDUP FOR IOWA
NATIONAL WEATHER SERVICE DES MOINES IA
700 PM CDT THU MAY 21 2015

NOTE: "FAIR" INDICATES FEW OR NO CLOUDS BELOW 12,000 FEET WITH NO
SIGNIFICANT WEATHER AND/OR OBSTRUCTIONS TO VISIBILITY.

* - THESE STATIONS ARE NOT NWS STATIONS...THUS NOT UNDER NWS
QUALITY CONTROL.  THEY ALSO DO NOT REPORT WEATHER SUCH
AS PRECIPITATION OR FOG.

IAZ001>003-012>014-020>022-031>034-043>046-220100-
   NORTHWEST IOWA

CITY           SKY/WX    TMP DP  RH WIND       PRES   REMARKS
CARROLL *      PTSUNNY   73  36  25 W13G21    30.09F
CHEROKEE *     PTSUNNY   68  39  34 NW6       30.09F
DENISON *      SUNNY     72  36  26 NW10G23   30.10F
LE MARS *      MOSUNNY   73  37  27 W13G20    30.11F
ORANGE CITY *  MOSUNNY   72  37  28 N8        30.10F
SHELDON *      MOSUNNY   73  30  20 NW17G23   30.08S
SIOUX CITY     SUNNY     75  34  22 NW12      30.12F
6HR MIN TEMP:  71; 6HR MAX TEMP:  76;

SPENCER        MOSUNNY   73  37  27 NW15      30.08S
6HR MIN TEMP:  72; 6HR MAX TEMP:  76;

STORM LAKE *   SUNNY     70  36  28 NW14      30.10S
$$

IAZ055>058-069>071-079>083-090>094-220100-
   SOUTHWEST IOWA

CITY           SKY/WX    TMP DP  RH WIND       PRES   REMARKS
ATLANTIC *     SUNNY     70  39  32 NW12      30.13S
AUDUBON *      SUNNY     72  36  26 NW8       30.13S
CLARINDA *     SUNNY     70  43  37 W8        30.17S
COUNCIL BLFS * SUNNY     70  43  37 W10       30.15F
CRESTON *      SUNNY     68  43  40 W12       30.13F
HARLAN  *      SUNNY     72  36  26 NW14      30.16F
LAMONI         SUNNY     71  46  40 W10       30.13F
6HR MIN TEMP:  67; 6HR MAX TEMP:  73;

RED OAK *      SUNNY     72  39  30 W7        30.15S
SHENANDOAH *   SUNNY     72  39  30 W6        30.16F
$$

IAZ047>049-059>061-072>074-084-220100-
   CENTRAL IOWA

CITY           SKY/WX    TMP DP  RH WIND       PRES   REMARKS
AMES           SUNNY     74  36  25 NW14      30.05F
6HR MIN TEMP:  70; 6HR MAX TEMP:  76;

ANKENY *       SUNNY     72  41  33 W14       30.06F
CHARITON *     SUNNY     72  43  35 W10       30.10S
DES MOINES     MOSUNNY   74  37  26 NW14      30.07F
6HR MIN TEMP:  71; 6HR MAX TEMP:  77;

GRINNELL*      PTSUNNY   72  39  30 W12       30.05S
KNOXVILLE *    SUNNY     73  37  27 W10       30.06F
MARSHALLTOWN   MOSUNNY   72  37  28 NW20G28   30.03F
6HR MIN TEMP:  67; 6HR MAX TEMP:  75;

PELLA *        SUNNY     73  46  39 W7        30.07F
PERRY *        PTSUNNY   73  36  25 NW15G22   30.08F
$$

IAZ004>006-015-016-023>025-035-036-220100-
   NORTH CENTRAL IOWA

CITY           SKY/WX    TMP DP  RH WIND       PRES   REMARKS
ALGONA *       SUNNY     72  23  16 N14G24    30.06S
CLARION *      SUNNY     72  25  17 N17G28    30.05S
ESTHERVILLE    SUNNY     71  24  17 NW22      30.06S
6HR MIN TEMP:  71; 6HR MAX TEMP:  74;

FORT DODGE *   SUNNY     72  39  30 NW8       30.07S
MASON CITY     SUNNY     71  33  24 NW15      30.04F
6HR MIN TEMP:  71; 6HR MAX TEMP:  75;

FOREST CITY *  SUNNY     68  32  26 NW14G22   30.04S
IOWA FALLS *     N/A     73  27  17 NW22      30.05S
$$

IAZ007>011-017>019-026>030-037>042-050>054-066-220100-
   NORTHEAST IOWA

CITY           SKY/WX    TMP DP  RH WIND       PRES   REMARKS
CEDAR RAPIDS   SUNNY     72  37  28 NW20G29   30.01F
6HR MIN TEMP:  64; 6HR MAX TEMP:  73;

CHARLES CITY * SUNNY     72  23  16 NW16G25   30.02S
CLINTON *      SUNNY     70  39  32 SW13      30.04F
DECORAH *      SUNNY     70  32  24 N14G23    29.99R
DUBUQUE        MOSUNNY   69  44  40 W13       29.99F
6HR MIN TEMP:  62; 6HR MAX TEMP:  70;

MONTICELLO *   MOSUNNY   73  37  27 W12G20    29.99S
OELWEIN *      SUNNY     72  25  17 NW17G26   30.01S
WATERLOO       SUNNY     72  25  17 NW16      30.01R
6HR MIN TEMP:  66; 6HR MAX TEMP:  76;

$$

IAZ064-065-067-068-078-220100-
   EAST CENTRAL IOWA

CITY           SKY/WX    TMP DP  RH WIND       PRES   REMARKS
DAVENPORT      SUNNY     71  37  28 W13       30.03F
6HR MIN TEMP:  64; 6HR MAX TEMP:  73;

IOWA CITY      MOSUNNY   72  42  34 W10       30.03F
6HR MIN TEMP:  64; 6HR MAX TEMP:  74;

MT. PLEASANT * SUNNY     69  42  37 SW9       30.07S
MUSCATINE *    MOSUNNY   70  43  37 SW9       30.04S
QUAD CITIES    SUNNY     70  39  32 SW10      30.03F
6HR MIN TEMP:  65; 6HR MAX TEMP:  72;

$$

IAZ062-063-075>077-085>089-095>099-220100-
   SOUTHEAST IOWA

CITY           SKY/WX    TMP DP  RH WIND       PRES   REMARKS
BURLINGTON     SUNNY     69  44  40 W9        30.07F
6HR MIN TEMP:  63; 6HR MAX TEMP:  70;

FAIRFIELD *    MOSUNNY   70  45  40 SW8       30.06F
FORT MADISON * SUNNY     68  45  42 SW7       30.09F
KEOKUK *       SUNNY     68  46  45 SW9       30.09F
OSKALOOSA *      N/A     73  37  26 W16G23    30.06F
CENTERVILLE *  SUNNY     68  68 100 W12       30.12S
OTTUMWA        MOSUNNY   71  41  33 W10       30.06F
6HR MIN TEMP:  65; 6HR MAX TEMP:  73;

WASHINGTON *   PTSUNNY   72  43  35 W10G18    30.06S
$$

ABBREVIATIONS USED IN REMARKS
   TC - TEMPERATURES IN CELSIUS
  WCI - WIND CHILL INDEX
   HX - HEAT INDEX
  VSB - VISIBILITY
$$




USA.gov is the U.S. government's official web portal to all federal, state and local government web resources and services.